Weather History for Whiteville, NC

Change the Weather History Date:

Sunday, November 18, 2012

  Actual Average (KLBT) Record (KLBT)
Temperature  
Mean Temperature 52 °F 54 °F  
Max Temperature 53 °F 67 °F 82 °F (2013)
Min Temperature 50 °F 41 °F 27 °F (2005)
Degree Days  
Heating Degree Days 14 12  
Month to date heating degree days 172  
Since 1 July heating degree days 304  
Cooling Degree Days 0 0  
Month to date cooling degree days 10  
Year to date cooling degree days 1904  
Growing Degree Days 2 (Base 50)    
Moisture  
Dew Point 48 °F    
Average Humidity 89    
Maximum Humidity 100    
Minimum Humidity 76    
Precipitation  
Precipitation 0.55 in 0.10 in 0.19 in (2012)
Month to date precipitation 1.65  
Year to date precipitation 39.41  
Sea Level Pressure  
Sea Level Pressure 30.27 in    
Wind  
Wind Speed 9 mph (NNE)    
Max Wind Speed 14 mph    
Max Gust Speed 24 mph    
Visibility 8 miles    
Events Rain    
T = Trace of Precipitation, MM = Missing Value Source: NWS Daily Summary

Daily Weather History Graph

Daily Weather History Graph

Search for Another Location

Airport:

Trip Planner

Search our weather history database for the weather conditions in past years. The results will help you decide how hot, cold, wet, or windy it might be!

Date:

Astronomy

Nov. 18, 2012 Rise Set
Actual Time 6:51 AM EST 5:08 PM EST
Civil Twilight 6:24 AM EST 5:35 PM EST
Nautical Twilight 5:53 AM EST 6:06 PM EST
Astronomical Twilight 5:23 AM EST 6:35 PM EST
Moon 11:19 AM EST (11/18) 10:22 PM EST (11/18)
Length of Visible Light 11h 11m
Length of Day
10h 17m
Waxing Crescent, 30% of the Moon is Illuminated
Nov 18
Waxing Crescent
Nov 20
First Quarter
Nov 28
Full
Dec 6
Last Quarter
Dec 13
New

Hourly Weather History & Observations

Time (EST) Temp. Dew Point Humidity Pressure Visibility Wind Dir Wind Speed Gust Speed Precip Events Conditions
12:15 AM 50.0 °F 44.6 °F 82% 30.34 in 10.0 mi NNE 8.1 mph - N/A   Mostly Cloudy
12:35 AM 50.0 °F 44.6 °F 82% 30.34 in 10.0 mi North 8.1 mph - N/A   Mostly Cloudy
12:55 AM 50.0 °F 44.6 °F 82% 30.34 in 10.0 mi NNE 6.9 mph - N/A   Scattered Clouds
1:15 AM 50.0 °F 44.6 °F 82% 30.33 in 10.0 mi North 8.1 mph - N/A   Mostly Cloudy
1:35 AM 50.0 °F 42.8 °F 76% 30.32 in 10.0 mi North 8.1 mph 16.1 mph N/A   Overcast
1:55 AM 50.0 °F 42.8 °F 76% 30.31 in 10.0 mi North 6.9 mph - N/A   Mostly Cloudy
2:15 AM 50.0 °F 42.8 °F 76% 30.30 in 10.0 mi NNE 9.2 mph - N/A   Scattered Clouds
2:35 AM 50.0 °F 42.8 °F 76% 30.30 in 10.0 mi NNE 8.1 mph - N/A   Clear
2:55 AM 50.0 °F 42.8 °F 76% 30.31 in 10.0 mi NNE 6.9 mph - N/A   Clear
3:15 AM 50.0 °F 42.8 °F 76% 30.31 in 10.0 mi NNE 8.1 mph - N/A   Scattered Clouds
3:35 AM 50.0 °F 44.6 °F 82% 30.30 in 10.0 mi NNE 11.5 mph 17.3 mph N/A   Scattered Clouds
3:55 AM 50.0 °F 44.6 °F 82% 30.30 in 10.0 mi NNE 8.1 mph - N/A   Scattered Clouds
4:15 AM 50.0 °F 44.6 °F 82% 30.29 in 10.0 mi North 9.2 mph - N/A   Scattered Clouds
4:35 AM 50.0 °F 44.6 °F 82% 30.29 in 10.0 mi NNE 8.1 mph - N/A   Scattered Clouds
4:55 AM 50.0 °F 44.6 °F 82% 30.29 in 10.0 mi NNE 8.1 mph 18.4 mph N/A   Mostly Cloudy
5:15 AM 50.0 °F 44.6 °F 82% 30.29 in 10.0 mi NNE 6.9 mph - N/A   Mostly Cloudy
5:35 AM 50.0 °F 44.6 °F 82% 30.29 in 10.0 mi North 11.5 mph 19.6 mph N/A   Mostly Cloudy
5:55 AM 50.0 °F 46.4 °F 87% 30.29 in 10.0 mi North 5.8 mph - N/A   Mostly Cloudy
6:15 AM 51.8 °F 46.4 °F 82% 30.30 in 10.0 mi North 6.9 mph - N/A   Mostly Cloudy
6:35 AM 51.8 °F 46.4 °F 82% 30.31 in 10.0 mi NNE 5.8 mph - N/A   Mostly Cloudy
6:55 AM 51.8 °F 46.4 °F 82% 30.31 in 10.0 mi North 8.1 mph 16.1 mph N/A   Mostly Cloudy
7:15 AM 51.8 °F 46.4 °F 82% 30.31 in 10.0 mi NNE 6.9 mph 17.3 mph N/A   Mostly Cloudy
7:35 AM 51.8 °F 46.4 °F 82% 30.31 in 10.0 mi North 9.2 mph - N/A   Mostly Cloudy
7:55 AM 51.8 °F 46.4 °F 82% 30.30 in 10.0 mi North 10.4 mph 18.4 mph N/A   Mostly Cloudy
8:15 AM 51.8 °F 46.4 °F 82% 30.29 in 10.0 mi North 8.1 mph - N/A   Mostly Cloudy
8:35 AM 51.8 °F 46.4 °F 82% 30.30 in 10.0 mi North 10.4 mph - N/A   Mostly Cloudy
8:55 AM 51.8 °F 46.4 °F 82% 30.30 in 10.0 mi North 9.2 mph - N/A   Mostly Cloudy
9:15 AM 53.6 °F 48.2 °F 82% 30.30 in 10.0 mi North 8.1 mph 16.1 mph N/A   Mostly Cloudy
9:35 AM 53.6 °F 48.2 °F 82% 30.30 in 7.0 mi North 6.9 mph 16.1 mph N/A   Mostly Cloudy
9:55 AM 51.8 °F 48.2 °F 88% 30.31 in 5.0 mi NNE 9.2 mph - N/A   Drizzle
10:15 AM 51.8 °F 50.0 °F 94% 30.30 in 7.0 mi North 10.4 mph 20.7 mph N/A Rain Light Rain
10:35 AM 51.8 °F 50.0 °F 94% 30.31 in 5.0 mi North 5.8 mph - N/A   Drizzle
10:55 AM 51.8 °F 50.0 °F 94% 30.31 in 4.0 mi North 8.1 mph - 0.02 in Rain Light Rain
11:15 AM 51.8 °F 50.0 °F 94% 30.30 in 2.5 mi North 8.1 mph 16.1 mph 0.05 in Rain Heavy Rain
11:35 AM 51.8 °F 50.0 °F 94% 30.29 in 2.5 mi North 6.9 mph - 0.11 in Rain Rain
11:55 AM 51.8 °F 50.0 °F 94% 30.27 in 4.0 mi North 10.4 mph - 0.14 in Rain Rain
12:15 PM 51.8 °F 50.0 °F 94% 30.26 in 4.0 mi North 9.2 mph 16.1 mph 0.01 in Rain Rain
12:35 PM 51.8 °F 50.0 °F 94% 30.25 in 5.0 mi North 9.2 mph 16.1 mph 0.03 in Rain Rain
12:55 PM 51.8 °F 50.0 °F 94% 30.24 in 4.0 mi North 6.9 mph 18.4 mph 0.05 in Rain Rain
1:15 PM 51.8 °F 50.0 °F 94% 30.24 in 3.0 mi North 9.2 mph 17.3 mph 0.02 in Rain Heavy Rain
1:35 PM 51.8 °F 50.0 °F 94% 30.23 in 4.0 mi North 9.2 mph 20.7 mph 0.08 in Rain Rain
1:55 PM 51.8 °F 50.0 °F 94% 30.23 in 5.0 mi North 9.2 mph - 0.10 in Rain Rain
2:15 PM 51.8 °F 50.0 °F 94% 30.22 in 4.0 mi North 10.4 mph 17.3 mph 0.03 in Rain Rain
2:35 PM 51.8 °F 50.0 °F 94% 30.22 in 5.0 mi North 9.2 mph 19.6 mph 0.04 in Rain Rain
2:55 PM 51.8 °F 51.8 °F 100% 30.23 in 5.0 mi NNE 5.8 mph - 0.05 in Rain Rain
3:15 PM 51.8 °F 50.0 °F 94% 30.22 in 3.0 mi North 11.5 mph - 0.04 in Rain Rain
3:35 PM 51.8 °F 51.8 °F 100% 30.21 in 3.0 mi North 12.7 mph 20.7 mph 0.11 in Rain Light Rain
3:55 PM 51.8 °F 51.8 °F 100% 30.21 in 5.0 mi North 11.5 mph 21.9 mph 0.12 in Rain Light Rain
4:15 PM 51.8 °F 51.8 °F 100% 30.21 in 4.0 mi NNE 10.4 mph 20.7 mph 0.02 in Rain Rain
4:35 PM 51.8 °F 51.8 °F 100% 30.21 in 5.0 mi NNE 11.5 mph 19.6 mph 0.03 in Rain Light Rain
4:55 PM 51.8 °F 51.8 °F 100% 30.21 in 4.0 mi NNE 11.5 mph 24.2 mph 0.04 in Rain Rain
5:15 PM 51.8 °F 51.8 °F 100% 30.21 in 5.0 mi North 11.5 mph 20.7 mph 0.01 in Rain Light Rain
5:35 PM 51.8 °F 51.8 °F 100% 30.23 in 7.0 mi NNE 9.2 mph - 0.01 in Rain Rain
5:55 PM 51.8 °F 51.8 °F 100% 30.23 in 7.0 mi North 8.1 mph 23.0 mph 0.02 in Rain Light Rain
6:15 PM 51.8 °F 51.8 °F 100% 30.22 in 10.0 mi NNE 9.2 mph 19.6 mph N/A   Mostly Cloudy
6:35 PM 53.6 °F 51.8 °F 94% 30.22 in 10.0 mi NNE 13.8 mph 21.9 mph N/A   Mostly Cloudy
6:55 PM 53.6 °F 51.8 °F 94% 30.23 in 10.0 mi NNE 12.7 mph 19.6 mph N/A   Mostly Cloudy
7:15 PM 53.6 °F 51.8 °F 94% 30.23 in 10.0 mi NNE 9.2 mph 20.7 mph N/A   Overcast
7:35 PM 53.6 °F 51.8 °F 94% 30.24 in 10.0 mi NNE 10.4 mph 21.9 mph N/A   Overcast
7:55 PM 53.6 °F 51.8 °F 94% 30.24 in 10.0 mi NNE 8.1 mph 17.3 mph N/A   Overcast
8:15 PM 53.6 °F 51.8 °F 94% 30.23 in 10.0 mi NNE 11.5 mph 20.7 mph N/A   Overcast
8:35 PM 53.6 °F 51.8 °F 94% 30.22 in 10.0 mi North 12.7 mph 20.7 mph N/A   Overcast
8:55 PM 53.6 °F 51.8 °F 94% 30.22 in 10.0 mi NNE 11.5 mph 19.6 mph N/A   Overcast
9:15 PM 53.6 °F 51.8 °F 94% 30.22 in 10.0 mi North 11.5 mph 17.3 mph N/A   Overcast
9:35 PM 53.6 °F 50.0 °F 88% 30.22 in 10.0 mi NNE 10.4 mph 18.4 mph N/A   Overcast
9:55 PM 53.6 °F 50.0 °F 88% 30.22 in 10.0 mi NNE 8.1 mph 20.7 mph N/A   Overcast
10:15 PM 53.6 °F 50.0 °F 88% 30.21 in 10.0 mi NNE 11.5 mph 18.4 mph N/A   Light Drizzle
10:35 PM 53.6 °F 50.0 °F 88% 30.21 in 10.0 mi NNE 9.2 mph 18.4 mph N/A   Light Drizzle
10:55 PM 51.8 °F 50.0 °F 94% 30.22 in 10.0 mi NNE 9.2 mph 18.4 mph N/A Rain Rain
11:35 PM 51.8 °F 50.0 °F 94% 30.20 in 7.0 mi NNE 9.2 mph 19.6 mph 0.01 in Rain Rain